www.pogodaiklimat.ru

Погода и климат >> Архив погоды >> Норвегия >> Рост аэропорт


ПОГОДА в Рост аэропорту

  • Прогноз погоды в Рост аэропорту
  • Монитор погоды в Рост аэропорту

АРХИВ ПОГОДЫ в Рост аэропорту

Время (UTC), дата Ветер
(напр.,м/с)
 
Видим.   Явления Облачность Т
(С)
Тd
(С)
f
(%)
Тe
(С)
Тes
(С)
Комфортность P
(гПа)
Po
(гПа)
Тmin
(С)
Tmax
(С)
R
(мм)
R24
(мм)
S
(см)
01 17.03 В 2
{4}
н/о н/о -0.4 -5.7 67 -4 -4 1001.0 1000.7
02 17.03 В 2
{2}
н/о н/о -0.5 -5.1 71 -4 -4 1000.8 1000.4
03 17.03 СВ 2
{3}
н/о н/о +0.9 -5.7 61 -2 -2 1000.5 1000.1
04 17.03 СВ 3
{4}
н/о н/о +0.9 -5.5 62 -3 -3 1000.4 1000.0
05 17.03 В 4
{6}
н/о н/о +1.0 -5.4 62 -4 -4 1000.1 999.8
06 17.03 СВ 7
{8}
н/о н/о +1.5 -4.1 66 -5 -5 1000.1 999.7 -0.9 +1.5 0.2
07 17.03 СВ 9
{11}
н/о н/о +1.8 -3.6 67 -5 -5 1000.2 999.8
08 17.03 СВ 8
{11}
н/о н/о +1.8 -3.3 69 -5 -5 1000.4 1000.0
09 17.03 СВ 8
{11}
н/о н/о +2.1 -3.6 66 -4 -4 1000.5 1000.1
10 17.03 СВ 9
{12}
н/о н/о +2.1 -4.0 64 -5 -5 1000.3 1000.0
11 17.03 СВ 10
{12}
н/о н/о +2.2 -3.1 68 -5 -5 1000.0 999.6
12 17.03 СВ 9
{13}
н/о н/о +2.3 -3.6 65 -4 -4 999.8 999.5
13 17.03 СВ 9
{13}
н/о н/о +2.1 -3.8 65 -5 -5 999.8 999.5
14 17.03 СВ 10
{13}
н/о н/о +1.9 -3.9 65 -5 -5 999.6 999.2
15 17.03 СВ 9
{13}
н/о н/о +1.5 -3.9 67 -6 -6 999.5 999.1
16 17.03 СВ 10
{15}
н/о н/о +1.4 -4.2 66 -6 -6 999.3 998.9
17 17.03 СВ 11
{14}
н/о н/о +1.3 -3.7 69 -6 -6 999.1 998.7
18 17.03 СВ 11
{15}
н/о н/о +1.2 -4.2 67 -7 -7 998.9 998.6 +1.0 +2.4
19 17.03 СВ 11
{14}
н/о н/о +1.1 -4.5 66 -7 -7 998.9 998.5
20 17.03 СВ 11
{13}
н/о н/о +1.1 -6.2 58 -7 -7 998.9 998.6
21 17.03 СВ 11
{14}
н/о н/о +1.1 -6.0 59 -7 -7 998.8 998.4
22 17.03 СВ 9
{12}
н/о н/о +1.1 -5.8 60 -6 -6 998.7 998.4
23 17.03 СВ 10
{12}
н/о н/о +1.1 -5.8 60 -6 -6 998.7 998.3
00 18.03 СВ 10
{14}
н/о н/о +1.0 -7.0 55 -6 -6 998.7 998.3
01 18.03 СВ 9
{12}
н/о н/о +0.8 -7.9 52 -6 -6 998.9 998.5
02 18.03 СВ 8
{11}
н/о н/о +0.8 -7.6 53 -6 -6 999.0 998.6
03 18.03 СВ 8
{11}
н/о н/о +0.9 -5.1 64 -6 -6 999.1 998.8
04 18.03 СВ 10
{12}
н/о н/о +0.7 -4.1 70 -7 -7 999.4 999.0
05 18.03 СВ 7
{11}
н/о н/о +0.5 -4.9 67 -6 -6 999.7 999.3
06 18.03 СВ 6
{12}
н/о н/о +0.5 -5.7 63 -6 -6 1000.0 999.6 +0.4 +1.3
07 18.03 СВ 5
{9}
н/о н/о +1.0 -5.0 64 -4 -4 1000.5 1000.1
08 18.03 С 4
{7}
н/о н/о +1.2 -5.7 60 -3 -3 1001.1 1000.7
09 18.03 С 6
{8}
н/о н/о +1.3 -6.9 54 -4 -4 1001.5 1001.1
10 18.03 С 7
{9}
н/о н/о +1.6 -5.3 60 -5 -5 1002.1 1001.8
11 18.03 С 7
{9}
н/о н/о +1.6 -5.7 58 -4 -4 1002.8 1002.4
12 18.03 С 7
{10}
н/о н/о +2.1 -4.4 62 -4 -4 1003.4 1003.1
13 18.03 С 8
{12}
н/о н/о +2.1 -3.6 66 -4 -4 1004.1 1003.8
14 18.03 С 9
{11}
н/о н/о +2.2 -3.9 64 -5 -5 1004.9 1004.5
15 18.03 С 9
{12}
н/о н/о +2.0 -3.5 67 -5 -5 1005.8 1005.4
16 18.03 С 9
{11}
н/о н/о +1.9 -4.2 64 -5 -5 1006.8 1006.4
17 18.03 С 9
{12}
н/о н/о +1.9 -3.8 66 -5 -5 1007.5 1007.2
18 18.03 С 8
{12}
н/о н/о +2.0 -4.1 64 -4 -4 1008.4 1008.0 +0.4 +2.6
19 18.03 С 8
{11}
н/о н/о +2.0 -4.1 64 -4 -4 1009.3 1008.9
20 18.03 С 7
{10}
н/о н/о +2.1 -4.4 62 -4 -4 1010.0 1009.6
21 18.03 С 6
{8}
н/о н/о +2.2 -3.9 64 -3 -3 1010.6 1010.3
22 18.03 С 4
{7}
н/о н/о +2.4 -3.7 64 -2 -2 1011.1 1010.7
23 18.03 СЗ 3
{5}
н/о н/о +2.1 -3.8 65 -2 -2 1011.5 1011.1
00 19.03 ЮЗ 1
{11}
н/о н/о +0.5 -3.7 73 -1 -1 1011.7 1011.3
01 19.03 Ю 3
{4}
н/о н/о +1.2 -2.7 75 -3 -3 1012.0 1011.6
02 19.03 З 5
{6}
н/о н/о +2.2 -1.0 79 -3 -3 1012.4 1012.1
03 19.03 З 5
{7}
н/о н/о +2.2 -1.2 78 -3 -3 1012.6 1012.2
04 19.03 Ю 4
{6}
н/о н/о +1.3 -3.2 72 -4 -4 1012.5 1012.1
05 19.03 Ю 6
{7}
н/о н/о +2.5 -1.3 76 -3 -3 1012.6 1012.2
06 19.03 Ю 7
{10}
н/о н/о +2.2 -0.4 83 -4 -4 1012.2 1011.8 +0.4 +2.9 0.5
07 19.03 Ю 8
{10}
н/о н/о +3.4 -0.6 75 -3 -3 1012.0 1011.7
08 19.03 Ю 10
{12}
н/о н/о +3.3 -0.1 78 -4 -4 1011.8 1011.5
09 19.03 Ю 10
{13}
н/о н/о +3.3 +0.7 83 -4 -4 1011.7 1011.3
10 19.03 Ю 11
{15}
н/о н/о +3.8 +1.4 84 -3 -3 1011.4 1011.0
11 19.03 Ю 9
{15}
н/о н/о +3.5 +1.2 85 -3 -3 1011.0 1010.6
12 19.03 Ю 11
{15}
н/о н/о +3.7 +1.1 83 -3 -3 1010.4 1010.0 0.5
13 19.03 Ю 11
{16}
н/о н/о +4.0 +1.4 83 -3 -3 1010.0 1009.6
14 19.03 Ю 12
{17}
н/о н/о +4.4 +0.6 76 -3 -3 1009.2 1008.8
15 19.03 Ю 13
{18}
н/о н/о +4.0 +0.2 76 -3 -3 1008.6 1008.2
16 19.03 Ю 13
{19}
н/о н/о +3.9 +0.3 77 -4 -4 1007.4 1007.1
17 19.03 Ю 14
{19}
н/о н/о +3.6 +1.2 84 -4 -4 1006.3 1005.9
18 19.03 Ю 17
{22}
н/о н/о +3.4 +1.1 85 -5 -5 1004.8 1004.4 +2.3 +4.8 0.6
19 19.03 Ю 17
{23}
н/о н/о +3.3 -0.1 78 -5 -5 1003.6 1003.3
20 19.03 Ю 17
{23}
н/о н/о +3.2 +0.1 80 -5 -5 1002.0 1001.7
21 19.03 Ю 19
{25}
н/о н/о +3.1 -0.3 78 -6 -6 1000.6 1000.3
22 19.03 Ю 19
{25}
н/о н/о +2.5 +1.0 90 -7 -7 999.0 998.7
23 19.03 Ю 19
{26}
н/о н/о +2.6 +1.3 91 -7 -7 997.4 997.0
00 20.03 Ю 20
{26}
н/о н/о +2.3 +1.0 91 -7 -7 996.2 995.8 3
01 20.03 Ю 17
{25}
н/о н/о +2.5 +1.3 92 -7 -7 995.6 995.3
02 20.03 Ю 18
{25}
н/о н/о +3.0 +1.7 91 -6 -6 995.3 994.9
03 20.03 ЮЗ 9
{23}
н/о н/о +3.5 +2.6 94 -3 -3 995.4 995.0
04 20.03 ЮЗ 9
{12}
н/о н/о +4.3 +2.3 87 -2 -2 995.8 995.5
05 20.03 ЮЗ 8
{13}
н/о н/о +4.0 +1.7 85 -2 -2 996.5 996.2
06 20.03 ЮЗ 7
{25}
н/о н/о +4.2 +1.6 83 -2 -2 997.0 996.6 +2.2 +4.8 5
07 20.03 ЮЗ 6
{9}
н/о н/о +4.8 +1.8 81 -0 -0 997.7 997.4
08 20.03 ЮЗ 6
{8}
н/о н/о +5.1 +2.3 82 0 0 998.2 997.9
09 20.03 ЮЗ 6
{8}
н/о н/о +5.6 +2.6 81 +1 +1 998.8 998.5
10 20.03 ЮЗ 6
{9}
н/о н/о +4.6 +2.0 83 -1 -1 999.1 998.8
11 20.03 ЮЗ 7
{10}
н/о н/о +6.3 +2.6 77 +1 +1 999.5 999.2
12 20.03 ЮЗ 7
{11}
н/о н/о +5.8 +2.3 78 +1 +1 999.6 999.2
13 20.03 ЮЗ 9
{14}
н/о н/о +5.7 +2.7 81 -0 -0 999.9 999.6
14 20.03 ЮЗ 11
{16}
н/о н/о +4.1 +1.8 85 -3 -3 1000.4 1000.0
15 20.03 З 9
{13}
н/о н/о +4.9 +2.4 84 -1 -1 1000.7 1000.4
16 20.03 ЮЗ 10
{14}
н/о н/о +4.2 +1.8 84 -3 -3 1001.1 1000.7
17 20.03 ЮЗ 10
{13}
н/о н/о +4.1 +1.3 82 -3 -3 1001.5 1001.1
18 20.03 ЮЗ 7
{16}
н/о н/о +4.0 +1.6 84 -2 -2 1001.9 1001.5 +3.6 +6.6 0.5
19 20.03 З 7
{16}
н/о н/о +3.6 +1.2 84 -2 -2 1002.6 1002.3
20 20.03 З 11
{17}
н/о н/о +2.1 +0.3 88 -6 -6 1003.3 1002.9
21 20.03 ЮЗ 9
{17}
н/о н/о +3.2 -0.2 78 -3 -3 1003.3 1002.9
22 20.03 ЮЗ 14
{18}
н/о н/о +2.7 +0.8 87 -6 -6 1003.9 1003.5
23 20.03 З 8
{13}
н/о н/о +3.2 +0.4 82 -3 -3 1003.9 1003.6
00 21.03 ЮЗ 10
{18}
н/о н/о +3.8 +1.2 83 -3 -3 1003.6 1003.2 2
01 21.03 ЮЗ 8
{11}
н/о н/о +3.8 +1.0 82 -2 -2 1003.0 1002.6
02 21.03 ЮЗ 5
{9}
н/о н/о +3.4 +1.0 84 -2 -2 1002.0 1001.6
03 21.03 Ю 6
{8}
н/о н/о +3.7 +1.1 83 -2 -2 1000.7 1000.3
04 21.03 Ю 7
{9}
н/о н/о +3.8 +1.7 86 -2 -2 999.4 999.1
05 21.03 Ю 8
{10}
н/о н/о +3.8 +2.0 88 -3 -3 998.2 997.8
06 21.03 Ю 7
{13}
н/о н/о +2.4 +1.2 92 -4 -4 997.1 996.7 +2.0 +4.6 2
07 21.03 Ю 10
{12}
н/о н/о +2.7 +1.5 92 -5 -5 995.5 995.1
08 21.03 ЮВ 10
{13}
н/о н/о +1.9 +1.0 94 -6 -6 994.1 993.7
09 21.03 ЮВ 7
{13}
н/о н/о +0.6 +0.2 97 -7 -7 993.6 993.3
10 21.03 Ю 8
{14}
н/о н/о +0.6 +0.2 97 -7 -7 994.2 993.9
11 21.03 З 21
{29}
н/о н/о +3.9 -1.0 70 -5 -5 996.5 996.1
12 21.03 З 19
{29}
н/о н/о +1.4 +0.3 92 -9 -9 999.8 999.5 8
13 21.03 З 20
{26}
н/о н/о +1.4 -0.8 85 -9 -9 1003.5 1003.2
14 21.03 З 16
{23}
н/о н/о +2.5 -1.8 73 -6 -6 1005.4 1005.0
15 21.03 З 14
{21}
н/о н/о +2.6 -1.7 73 -6 -6 1007.3 1006.9
17 21.03 З 15
{21}
н/о н/о +1.1 -1.9 80 -8 -8 1010.2 1009.9
18 21.03 З 16
{26}
н/о н/о +2.2 -4.5 61 -6 -6 1011.4 1011.0 +0.1 +4.1 10
19 21.03 З 12
{18}
н/о н/о +2.3 -4.4 61 -5 -5 1012.5 1012.2
20 21.03 З 13
{20}
н/о н/о +2.2 -3.3 67 -6 -6 1013.8 1013.5
21 21.03 З 9
{17}
н/о н/о +1.7 -3.2 70 -5 -5 1014.4 1014.0
22 21.03 З 10
{20}
н/о н/о +1.1 -5.1 63 -6 -6 1015.1 1014.7
23 21.03 З 10
{19}
н/о н/о +1.8 -2.0 76 -6 -6 1015.4 1015.0
01 22.03 З 10
{15}
н/о н/о +3.0 -4.0 60 -4 -4 1016.5 1016.1
02 22.03 З 10
{12}
н/о н/о +3.0 -4.6 57 -4 -4 1016.7 1016.3
03 22.03 ЮЗ 10
{13}
н/о н/о +3.1 -3.9 60 -4 -4 1016.7 1016.3
04 22.03 ЮЗ 8
{12}
н/о н/о +3.3 -3.7 60 -3 -3 1016.6 1016.2
05 22.03 ЮЗ 8
{12}
н/о н/о +3.2 -2.5 66 -3 -3 1016.8 1016.4
06 22.03 ЮЗ 8
{15}
н/о н/о +2.9 -0.4 79 -4 -4 1016.5 1016.1 +1.1 +3.4
07 22.03 Ю 8
{11}
н/о н/о +3.2 +0.6 83 -3 -3 1015.9 1015.6
08 22.03 Ю 7
{11}
н/о н/о +3.1 +1.2 87 -3 -3 1015.4 1015.0
09 22.03 Ю 9
{12}
н/о н/о +4.3 +1.3 81 -2 -2 1014.1 1013.7
10 22.03 Ю 9
{13}
н/о н/о +3.8 +2.2 89 -3 -3 1012.9 1012.6
11 22.03 Ю 13
{16}
н/о н/о +3.6 +2.4 92 -4 -4 1011.1 1010.7
12 22.03 Ю 13
{18}
н/о н/о +3.5 +2.6 94 -4 -4 1009.4 1009.0 0.3
13 22.03 Ю 15
{19}
н/о н/о +3.9 +2.6 91 -4 -4 1007.1 1006.7
14 22.03 Ю 17
{22}
н/о н/о +3.3 +2.0 91 -5 -5 1004.6 1004.3
15 22.03 Ю 15
{20}
н/о н/о +3.5 +2.0 90 -5 -5 1001.5 1001.2
16 22.03 Ю 17
{23}
н/о н/о +3.3 +2.0 91 -5 -5 999.0 998.6
17 22.03 Ю 15
{22}
н/о н/о +4.1 +2.8 91 -4 -4 996.6 996.3
18 22.03 Ю 16
{24}
н/о н/о +4.9 +3.4 90 -3 -3 994.8 994.5 +2.5 +5.1 7
19 22.03 Ю 17
{24}
н/о н/о +5.4 +4.1 91 -3 -3 993.5 993.2
20 22.03 Ю 13
{22}
н/о н/о +5.5 +4.3 92 -2 -2 993.0 992.6
21 22.03 ЮЗ 11
{16}
н/о н/о +5.9 +4.7 92 -1 -1 992.6 992.2
22 22.03 Ю 11
{14}
н/о н/о +6.0 +4.2 88 -0 -0 991.8 991.5
23 22.03 ЮЗ 10
{14}
н/о н/о +5.7 +3.4 85 -1 -1 990.9 990.6
00 23.03 Ю 11
{24}
н/о н/о +5.5 +3.0 84 -1 -1 990.1 989.7 2
01 23.03 Ю 12
{16}
н/о н/о +5.5 +2.5 81 -1 -1 988.7 988.3
02 23.03 Ю 13
{19}
н/о н/о +5.8 +3.8 87 -1 -1 986.8 986.5
03 23.03 ЮЗ 12
{21}
н/о н/о +4.4 +1.9 84 -3 -3 985.9 985.5
04 23.03 ЮЗ 14
{19}
н/о н/о +5.1 +1.8 79 -2 -2 985.2 984.8
05 23.03 ЮЗ 12
{26}
н/о н/о +3.7 +0.8 81 -4 -4 985.0 984.6
06 23.03 ЮЗ 11
{26}
н/о н/о +3.4 +0.5 81 -4 -4 984.1 983.8 +2.9 +6.1 5
07 23.03 ЮЗ 11
{20}
н/о н/о +4.8 +1.5 79 -2 -2 983.3 982.9
08 23.03 Ю 16
{22}
н/о н/о +4.5 -0.3 71 -3 -3 982.0 981.7
09 23.03 ЮЗ 14
{22}
н/о н/о +4.4 -0.4 71 -3 -3 981.0 980.7
10 23.03 Ю 17
{24}
н/о н/о +4.1 +0.1 75 -4 -4 979.7 979.3
11 23.03 Ю 14
{26}
н/о н/о +3.8 +1.5 85 -4 -4 978.1 977.8
12 23.03 ЮЗ 18
{26}
н/о н/о +4.4 -0.6 70 -4 -4 977.2 976.8 0.7
13 23.03 ЮЗ 20
{26}
н/о н/о +4.2 -0.8 70 -4 -4 976.2 975.9
14 23.03 ЮЗ 18
{24}
н/о н/о +4.0 +0.7 79 -4 -4 975.0 974.7
15 23.03 Ю 17
{25}
н/о н/о +3.8 +1.8 87 -5 -5 973.4 973.1
16 23.03 Ю 16
{25}
н/о н/о +4.1 +2.5 89 -4 -4 971.0 970.7
17 23.03 ЮЗ 17
{23}
н/о н/о +4.7 +2.9 88 -3 -3 969.9 969.5
18 23.03 З 16
{26}
н/о н/о +4.7 +3.0 89 -3 -3 971.4 971.1 +1.2 +5.1 2
19 23.03 З 18
{24}
н/о н/о +4.6 +2.3 85 -4 -4 973.9 973.6
20 23.03 З 18
{27}
н/о н/о +4.9 +2.4 84 -3 -3 977.2 976.8
21 23.03 З 23
{29}
н/о н/о +4.0 +1.7 85 -5 -5 980.5 980.1
22 23.03 З 22
{30}
н/о н/о +3.6 +1.0 83 -6 -6 983.4 983.1
23 23.03 З 21
{29}
н/о н/о +3.0 +0.7 85 -6 -6 985.5 985.1

 

Местоположение метеостанции Рост аэропорт (Норвегия): широта 67.52 долгота 12.10 высота над уровнем моря 4 м.

В архиве по умолчанию представлена погода в Рост аэропорту за последнюю неделю. Архивные данные за месяц целиком и за предыдущие месяцы, начиная с января 2011 года, Вы можете получить, выбрав интересующий диапазон дат из раскрывающегося списка и нажав кнопку "Ввод!".


*Определитесь, кто Вы:
робот инопланетянин человек

Внимание! Время в таблицах - всемирное. Для получения местного времени необходимо прибавить поправку, которая равна 1 ч.

Смотрите также архив погоды в соседних городах и на ближайших метеорологических станциях:

Погода в Аэропорту Vaeroy Heliport (Норвегия) (30 км)
Погода в Хеллигвере (Норвегия) (78 км)
Погода на Мыкене (Норвегия) (85 км)
Погода в Лекнесе (Норвегия) (96 км)
Погода в Рейпе (Норвегия) (96 км)
Погода в Бодо (Норвегия) (101 км)
Погода на Маяке Skrova (Норвегия) (128 км)
Погода в Солвер III (Норвегия) (130 км)
Погода в Сволваер аэропорту (Норвегия) (135 км)
Погода в Сетсе (Норвегия) (150 км)

Пояснения к столбцам:

Ветер - указаны скорость ветра в м/с - средняя за 10 мин, порывы в срок и между сроками (в фигурных скобках) и направление, откуда дует ветер: С - северный, СВ - северо-восточный, В - восточный, ЮВ - юго-восточный, Ю - южный, ЮЗ - юго-западный, З - западный, СЗ - северо-западный.
Видимость - горизонтальная дальность видимости в метрах или километрах. При видимости от 1 до 10 км при отсутствии осадков обычно наблюдается дымка, при ухудшении видимости до 1 км и менее - туман. В сухую погоду видимость может ухудшаться дымом, пылью или мглою.
Явления - указаны атмосферные явления, наблюдавшиеся в срок или в последний час перед сроком; фигурными скобками обозначены явления, наблюдавшиеся между сроками (за 1-3 часа до срока); квадратными скобками обозначены град или гололедные отложения с указанием их диаметра в мм.
Облачность - указаны через наклонную черту общая и нижняя облачность в баллах и высота нижней границы облаков в метрах; квадратными скобками обозначены формы облаков: Ci - перистые, Cs - перисто-слоистые, Cc - перисто-кучевые, Ac - высококучевые, As - высокослоистые, Sc - слоисто-кучевые, Ns - слоисто-дождевые, Cu - кучевые, Cb - кучево-дождевые. Подробнее классификацию облаков см. в Атласе облаков (PDF).
T - Температура воздуха - температура, измеренная на высоте 2 м над землей.
Td - Температура точки росы - температура, при понижении до которой содержащийся в воздухе водяной пар достигнет насыщения.
f - Относительная влажность воздуха - влажноcть воздуха, измеренная на высоте 2 м над землей.
Te - Эффективная температура - температура, которую ощущает одетый по сезону человек в тени. Характеристика душности погоды. При расчете учитывается влияние влажности воздуха и скорости ветра на теплоощущения человека.
Tes - Эффективная температура на солнце - температура, которую ощущает человек, с поправкой на солнечный нагрев. Характеристика знойности погоды. Зависит от высоты солнца над горизонтом, облачности и скорости ветра. Ночью, в пасмурную погоду, а также при ветре 12 м/с и более поправка равна нулю.
P - Атмосферное давление - приведенное к уровню моря атмосферное давление.
Po - Атмосферное давление - измеренное на уровне метеостанции атмосферное давление.
Tmin - Минимальная температура - минимум температуры воздуха на высоте 2 м над землей.
Tmax - Максимальная температура - максимум температуры воздуха на высоте 2 м над землей.
R - Количество осадков - Количество выпавших осадков за период времени, мм. При наведении курсора мыши на число - период времени, за который выпало указанное количество осадков.
R24 - Количество осадков - Количество выпавших осадков за 24 часа, мм.
S - Снежный покров - Высота снежного покрова, см. При наведении курсора мыши на число - состояние снежного покрова и степень покрытия местности в баллах.